Find Starlink 34764

NORAD ID: 65098 Int'l Des: 2025-167 Owner: SPXS Country: US Constellation: starlink operational
LEOCIRCULAR

現在のビュー

3D地球を読み込み中...

About Starlink 34764

Starlink 34764 (NORAD 65098) is a starlink constellation satellite (v2 mini) launched Aug 4, 2025 by SPXS of US. It operates in LEO, CIRCULAR orbit with a mass of 575.00 kg.

Starlink 34764について

説明を読み込み中...

次回通過

Passes for default location (London). Set your location on the main map for personalized predictions.

高度履歴

Loading altitude history...

軌道要素

1 65098U 25167W 26190.39449526 .00010690 00000-0 32690-3 0 9998
2 65098 53.1567 179.2071 0001254 106.2574 253.8567 15.34416750 52145
Epoch: Jul 9, 2026 • Age: 31 hours

現在のステータス

高度 465.6 km
遠地点 / 近地点 N/A
速度 7.64 km/s
衛星直下点 39.58°N, 28.06°E
打ち上げ日 Aug 4, 2025
運用期間 0.9 years
タイプ internet

技術仕様

分類 Payload
質量 575.00 kg
乾燥質量 530.00 kg
総質量 575.00 kg
長さ 0.30 m
直径 4.10 m
スパン 29.00 m
形状 Box + pan
製造者 SPXS
バスタイプ Starlink V2MO
フェーズステータス In Orbit
所有者/国 SPXS/US

Most Searched